Tracking 20083 objects as of 12-Dec-2019
HD Live streaming from Space Station
objects crossing your sky now

FENGYUN 1C DEB

Track FENGYUN 1C DEB now!
10-day predictions


NORAD ID: 33605
Int'l Code: 1999-025DCN
Perigee: 844.4 km
Apogee: 931.4 km
Inclination: 98.9 °
Period: 102.6 minutes
Semi major axis: 7258 km
RCS: 0.0013 m2 (small)
Launch date: May 10, 1999
Source: People's Republic of China (PRC)
Launch site: Taiyaun Space Center, China (TSC)

Note: This is SATELLITE DEBRIS
aabbcc
Your satellite tracking list
Your tracking list is empty




NASA's NSSDC Master Catalog

Two Line Element Set (TLE):
1 33605U 99025DCN 19345.88559125  .00000434  00000-0  29805-3 0  9995
2 33605  98.8574  29.8102 0059942 111.9835  61.4848 14.03783708614776
Source of the keplerian elements: AFSPC